Simultaneous Nadir Overpasses (SNOs) Predictions

Prediction of SNOs between METOP-B and TERRA Satellite Orbit:

Table of predicted SNOs for the next 14.0 days since TLE Epoch: 7/27/2024
Index Date (METOP-B) Time (METOP-B) Lat,Lon (METOP-B) SZA (METOP-B ) Date (TERRA) Time (TERRA) Lat,Lon (TERRA) SZA (TERRA ) Distance(km) Time Diff (sec)
1 07/27/2024 20:12:39 -79.94, 75.29 118.60 07/27/2024 20:13:13 -79.95, 75.31 118.59 0.79 34
2 07/27/2024 21:03:13 80.13,-115.48 61.70 07/27/2024 21:02:29 80.13,-115.61 61.67 2.78 44
3 07/30/2024 10:43:03 -79.90,-142.78 118.05 07/30/2024 10:43:41 -79.90,-142.71 118.04 1.37 38
4 07/30/2024 11:33:36 80.12, 26.72 62.29 07/30/2024 11:32:56 80.11, 26.63 62.27 1.81 40
5 08/02/2024 01:13:26 -79.90, -0.33 117.38 08/02/2024 01:14:08 -79.90, -0.37 117.38 0.97 42
6 08/02/2024 02:04:02 80.03, 168.26 62.82 08/02/2024 02:03:25 80.04, 168.39 62.83 2.65 37
7 08/04/2024 15:43:50 -79.87, 141.77 116.74 08/04/2024 15:44:35 -79.87, 141.79 116.73 0.30 45
8 08/04/2024 16:34:23 80.09, -48.77 63.60 08/04/2024 16:33:50 80.09, -48.89 63.58 2.49 33
9 08/07/2024 06:14:12 -79.90, -75.61 115.98 08/07/2024 06:15:00 -79.90, -75.69 115.98 1.51 48
10 08/07/2024 07:04:48 80.03, 92.95 64.22 08/07/2024 07:04:17 80.04, 93.06 64.23 2.36 31
11 08/09/2024 20:44:36 -79.85, 66.37 115.29 08/09/2024 20:45:26 -79.86, 66.38 115.28 0.30 50



Historial Predications of SNOs between METOP-B and TERRA
